NKS1974 KDCA-KBOS

Flight info

Callsign NKS1974
Flight time 1h 10m
Altitude 35000
Route SOOKI6 SWANN BROSS Q419 JFK ROBUC3
Aircraft A320/M-SDE3FGHIRWY/LB1

Departure

Time 2026-05-08 01:06
Airport Ronald Reagan Washington National Airport (KDCA)

Arrival

Time 2026-05-08 02:16
Airport Boston Logan International Airport (KBOS)
Time Latitude Longitude Altitude Speed Heading
2026-05-08 00:32 38.84997 -77.04039 23 ft 0 kts 277°
2026-05-08 00:51 38.84997 -77.04038 23 ft 0 kts 277°
2026-05-08 00:54 38.84997 -77.04037 23 ft 1 kts 277°
2026-05-08 00:54 38.84995 -77.04018 23 ft 2 kts 277°
2026-05-08 00:54 38.84994 -77.04007 23 ft 2 kts 275°
2026-05-08 00:55 38.84997 -77.03989 23 ft 2 kts 243°
2026-05-08 00:55 38.85006 -77.03973 23 ft 2 kts 217°
2026-05-08 00:55 38.85019 -77.03965 23 ft 2 kts 192°
2026-05-08 00:55 38.85028 -77.03964 23 ft 1 kts 177°
2026-05-08 00:56 38.85035 -77.03964 23 ft 0 kts 175°
2026-05-08 00:58 38.85027 -77.03964 23 ft 1 kts 175°
2026-05-08 00:58 38.85008 -77.03961 23 ft 3 kts 175°
2026-05-08 00:58 38.84978 -77.03958 23 ft 4 kts 175°
2026-05-08 00:59 38.84939 -77.03954 23 ft 6 kts 175°
2026-05-08 00:59 38.84890 -77.03947 23 ft 7 kts 160°
2026-05-08 00:59 38.84880 -77.03891 23 ft 6 kts 40°
2026-05-08 00:59 38.84934 -77.03892 23 ft 8 kts 352°
2026-05-08 01:00 38.85000 -77.03902 23 ft 10 kts 354°
2026-05-08 01:00 38.85078 -77.03909 23 ft 12 kts 356°
2026-05-08 01:00 38.85147 -77.03946 23 ft 11 kts 303°
2026-05-08 01:00 38.85206 -77.03981 23 ft 10 kts 355°
2026-05-08 01:01 38.85284 -77.03990 23 ft 12 kts 355°
2026-05-08 01:01 38.85373 -77.03999 23 ft 13 kts 356°
2026-05-08 01:01 38.85470 -77.04008 23 ft 14 kts 354°
2026-05-08 01:01 38.85572 -77.04034 23 ft 15 kts 353°
2026-05-08 01:02 38.85671 -77.04044 23 ft 10 kts 355°
2026-05-08 01:02 38.85693 -77.04047 23 ft 0 kts 355°
2026-05-08 01:02 38.85694 -77.04047 23 ft 0 kts 355°
2026-05-08 01:03 38.85705 -77.04047 23 ft 2 kts 355°
2026-05-08 01:03 38.85751 -77.04052 23 ft 12 kts 356°
2026-05-08 01:03 38.85852 -77.04063 23 ft 15 kts 355°
2026-05-08 01:03 38.85930 -77.04032 23 ft 12 kts 68°
2026-05-08 01:04 38.85985 -77.03963 23 ft 12 kts 15°
2026-05-08 01:04 38.86066 -77.03929 23 ft 11 kts 28°
2026-05-08 01:04 38.86084 -77.03875 23 ft 6 kts 149°
2026-05-08 01:04 38.86061 -77.03869 23 ft 0 kts 174°
2026-05-08 01:05 38.86036 -77.03866 23 ft 22 kts 175°
2026-05-08 01:05 38.85630 -77.03825 23 ft 93 kts 175°
2026-05-08 01:05 38.84768 -77.03739 48 ft 147 kts 175°
2026-05-08 01:05 38.83719 -77.03628 489 ft 156 kts 176°
2026-05-08 01:06 38.82616 -77.03492 1061 ft 163 kts 173°
2026-05-08 01:06 38.81506 -77.03256 1732 ft 161 kts 171°
2026-05-08 01:06 38.80376 -77.02989 2081 ft 172 kts 171°
2026-05-08 01:06 38.79145 -77.02708 2380 ft 187 kts 171°
2026-05-08 01:07 38.77815 -77.02412 2670 ft 205 kts 171°
2026-05-08 01:07 38.76412 -77.01834 2983 ft 222 kts 147°
2026-05-08 01:07 38.75357 -77.00279 3247 ft 243 kts 110°
2026-05-08 01:07 38.75093 -76.98113 3669 ft 257 kts 86°
2026-05-08 01:08 38.75134 -76.95768 4223 ft 270 kts 86°
2026-05-08 01:08 38.75224 -76.93378 4960 ft 274 kts 76°
2026-05-08 01:08 38.76008 -76.91225 5717 ft 270 kts 45°
2026-05-08 01:08 38.77478 -76.89752 6505 ft 268 kts 27°
2026-05-08 01:09 38.79080 -76.88566 7247 ft 272 kts 26°
2026-05-08 01:09 38.80737 -76.87332 7959 ft 279 kts 26°
2026-05-08 01:09 38.82401 -76.86067 8660 ft 285 kts 25°
2026-05-08 01:09 38.84128 -76.84737 9363 ft 290 kts 25°
2026-05-08 01:10 38.85831 -76.83337 10016 ft 297 kts 29°
2026-05-08 01:10 38.87492 -76.81713 10487 ft 312 kts 34°
2026-05-08 01:10 38.89180 -76.79824 10839 ft 328 kts 37°
2026-05-08 01:10 38.90888 -76.77841 11364 ft 336 kts 37°
2026-05-08 01:11 38.92628 -76.75804 11940 ft 342 kts 37°
2026-05-08 01:11 38.94410 -76.73724 12489 ft 348 kts 37°
2026-05-08 01:11 38.96207 -76.71635 12989 ft 355 kts 37°
2026-05-08 01:11 38.98074 -76.69469 13505 ft 362 kts 37°
2026-05-08 01:12 38.99942 -76.67298 14001 ft 368 kts 37°
2026-05-08 01:12 39.01817 -76.65044 14532 ft 374 kts 39°
2026-05-08 01:12 39.03675 -76.62690 15078 ft 379 kts 39°
2026-05-08 01:12 39.05537 -76.60300 15604 ft 382 kts 39°
2026-05-08 01:13 39.07440 -76.57856 16125 ft 386 kts 39°
2026-05-08 01:13 39.09338 -76.55424 16657 ft 389 kts 39°
2026-05-08 01:13 39.11133 -76.52790 17121 ft 400 kts 53°
2026-05-08 01:13 39.12281 -76.49493 17578 ft 408 kts 76°
2026-05-08 01:14 39.12765 -76.45940 18069 ft 410 kts 83°
2026-05-08 01:14 39.13106 -76.42271 18508 ft 415 kts 84°
2026-05-08 01:14 39.13442 -76.38555 18978 ft 418 kts 84°
2026-05-08 01:14 39.13811 -76.34841 19517 ft 420 kts 83°
2026-05-08 01:15 39.14209 -76.31121 19986 ft 422 kts 83°
2026-05-08 01:15 39.14628 -76.27372 20393 ft 426 kts 82°
2026-05-08 01:15 39.15049 -76.23610 20823 ft 429 kts 82°
2026-05-08 01:15 39.15484 -76.19801 21228 ft 433 kts 82°
2026-05-08 01:16 39.15927 -76.15981 21607 ft 436 kts 82°
2026-05-08 01:16 39.16375 -76.12106 22012 ft 440 kts 82°
2026-05-08 01:16 39.16825 -76.08195 22405 ft 442 kts 82°
2026-05-08 01:16 39.17273 -76.04292 22757 ft 446 kts 82°
2026-05-08 01:17 39.17725 -76.00310 23146 ft 449 kts 82°
2026-05-08 01:17 39.18173 -75.96351 23498 ft 452 kts 82°
2026-05-08 01:17 39.18630 -75.92357 23851 ft 455 kts 80°
2026-05-08 01:17 39.19518 -75.88430 24161 ft 454 kts 59°
2026-05-08 01:18 39.21329 -75.85204 24493 ft 441 kts 36°
2026-05-08 01:18 39.23621 -75.82675 24862 ft 437 kts 30°
2026-05-08 01:18 39.26036 -75.80220 25193 ft 440 kts 30°
2026-05-08 01:18 39.28425 -75.77768 25509 ft 444 kts 30°
2026-05-08 01:19 39.30825 -75.75235 25857 ft 448 kts 31°
2026-05-08 01:19 39.33214 -75.72661 26192 ft 451 kts 31°
2026-05-08 01:19 39.35638 -75.70013 26509 ft 455 kts 32°
2026-05-08 01:19 39.38047 -75.67372 26831 ft 458 kts 32°
2026-05-08 01:20 39.40478 -75.64699 27150 ft 461 kts 32°
2026-05-08 01:20 39.42941 -75.61987 27464 ft 464 kts 32°
2026-05-08 01:20 39.45382 -75.59302 27761 ft 467 kts 32°
2026-05-08 01:20 39.47857 -75.56576 28069 ft 470 kts 32°
2026-05-08 01:21 39.50348 -75.53831 28388 ft 471 kts 32°
2026-05-08 01:21 39.52840 -75.51077 28755 ft 472 kts 32°
2026-05-08 01:21 39.55351 -75.48303 29054 ft 475 kts 31°
2026-05-08 01:21 39.57877 -75.45509 29362 ft 477 kts 31°
2026-05-08 01:22 39.60379 -75.42741 29664 ft 479 kts 32°
2026-05-08 01:22 39.62940 -75.39907 29929 ft 482 kts 31°
2026-05-08 01:22 39.65472 -75.37098 30188 ft 484 kts 32°
2026-05-08 01:22 39.68037 -75.34255 30425 ft 486 kts 32°
2026-05-08 01:23 39.70617 -75.31390 30628 ft 489 kts 32°
2026-05-08 01:23 39.73203 -75.28509 30847 ft 491 kts 32°
2026-05-08 01:23 39.75774 -75.25643 31083 ft 492 kts 32°
2026-05-08 01:23 39.78339 -75.22682 31302 ft 497 kts 35°
2026-05-08 01:24 39.80796 -75.19471 31535 ft 503 kts 40°
2026-05-08 01:24 39.83113 -75.16112 31777 ft 506 kts 42°
2026-05-08 01:24 39.85427 -75.12637 32071 ft 505 kts 42°
2026-05-08 01:24 39.87726 -75.09162 32364 ft 504 kts 42°
2026-05-08 01:25 39.90001 -75.05741 32633 ft 503 kts 41°
2026-05-08 01:25 39.92303 -75.02296 32917 ft 503 kts 41°
2026-05-08 01:25 39.94594 -74.98885 33183 ft 503 kts 41°
2026-05-08 01:25 39.96840 -74.95367 33409 ft 507 kts 45°
2026-05-08 01:26 39.98902 -74.91671 33613 ft 512 kts 49°
2026-05-08 01:26 40.00907 -74.87779 33821 ft 514 kts 50°
2026-05-08 01:26 40.02865 -74.83889 34020 ft 515 kts 51°
2026-05-08 01:26 40.04818 -74.79992 34229 ft 515 kts 51°
2026-05-08 01:27 40.06766 -74.76122 34414 ft 515 kts 51°
2026-05-08 01:27 40.08743 -74.72218 34597 ft 516 kts 51°
2026-05-08 01:27 40.10735 -74.68301 34756 ft 518 kts 51°
2026-05-08 01:28 40.14724 -74.60419 34856 ft 519 kts 51°
2026-05-08 01:28 40.18839 -74.52773 34870 ft 514 kts 45°
2026-05-08 01:29 40.23620 -74.45940 34896 ft 507 kts 35°
2026-05-08 01:29 40.28986 -74.39985 34880 ft 502 kts 30°
2026-05-08 01:30 40.34435 -74.34283 34865 ft 502 kts 31°
2026-05-08 01:30 40.39827 -74.28554 34865 ft 503 kts 31°
2026-05-08 01:31 40.45273 -74.22704 34864 ft 503 kts 32°
2026-05-08 01:31 40.50575 -74.16730 34863 ft 510 kts 39°
2026-05-08 01:32 40.54995 -74.09374 34853 ft 521 kts 55°
2026-05-08 01:32 40.57985 -74.00736 34862 ft 525 kts 71°
2026-05-08 01:33 40.60010 -73.91494 34858 ft 525 kts 73°
2026-05-08 01:33 40.62275 -73.82398 34854 ft 523 kts 65°
2026-05-08 01:34 40.65670 -73.74074 34852 ft 517 kts 51°
2026-05-08 01:34 40.70116 -73.66810 34855 ft 510 kts 41°
2026-05-08 01:35 40.74948 -73.59976 34850 ft 511 kts 41°
2026-05-08 01:35 40.79733 -73.53068 34851 ft 511 kts 42°
2026-05-08 01:36 40.84488 -73.46083 34716 ft 507 kts 42°
2026-05-08 01:36 40.86810 -73.42654 34295 ft 506 kts 42°
2026-05-08 01:36 40.89166 -73.39176 33812 ft 506 kts 42°
2026-05-08 01:36 40.91490 -73.35738 33416 ft 502 kts 42°
2026-05-08 01:37 40.93795 -73.32327 32958 ft 499 kts 43°
2026-05-08 01:37 40.96124 -73.28883 32389 ft 500 kts 43°
2026-05-08 01:37 40.98403 -73.25507 31818 ft 500 kts 43°
2026-05-08 01:37 41.00740 -73.22041 31275 ft 500 kts 43°
2026-05-08 01:38 41.03019 -73.18655 30810 ft 492 kts 43°
2026-05-08 01:38 41.05271 -73.15299 30100 ft 486 kts 43°
2026-05-08 01:38 41.07482 -73.12006 29227 ft 481 kts 43°
2026-05-08 01:38 41.09681 -73.08734 28338 ft 475 kts 43°
2026-05-08 01:39 41.11861 -73.05486 27445 ft 469 kts 43°
2026-05-08 01:39 41.14020 -73.02261 26592 ft 462 kts 44°
2026-05-08 01:39 41.16112 -72.99132 25729 ft 456 kts 44°
2026-05-08 01:39 41.18201 -72.96006 24863 ft 450 kts 44°
2026-05-08 01:40 41.20205 -72.92879 24023 ft 445 kts 49°
2026-05-08 01:40 41.21939 -72.89535 23184 ft 442 kts 58°
2026-05-08 01:40 41.23407 -72.85967 22523 ft 440 kts 63°
2026-05-08 01:40 41.24755 -72.82380 22462 ft 436 kts 64°
2026-05-08 01:41 41.26098 -72.78758 22429 ft 438 kts 63°
2026-05-08 01:41 41.27447 -72.75147 22383 ft 438 kts 63°
2026-05-08 01:41 41.28799 -72.71559 22292 ft 437 kts 63°
2026-05-08 01:41 41.30172 -72.67938 22147 ft 436 kts 63°
2026-05-08 01:42 41.31522 -72.64385 21928 ft 434 kts 63°
2026-05-08 01:42 41.32864 -72.60859 21689 ft 432 kts 63°
2026-05-08 01:42 41.34232 -72.57257 21441 ft 430 kts 63°
2026-05-08 01:42 41.35578 -72.53713 21198 ft 429 kts 63°
2026-05-08 01:43 41.36918 -72.50179 20958 ft 427 kts 63°
2026-05-08 01:43 41.38247 -72.46667 20867 ft 426 kts 63°
2026-05-08 01:43 41.39570 -72.43169 20871 ft 426 kts 64°
2026-05-08 01:43 41.40914 -72.39603 20872 ft 427 kts 63°
2026-05-08 01:44 41.42233 -72.36099 20861 ft 427 kts 63°
2026-05-08 01:44 41.43570 -72.32559 20860 ft 426 kts 64°
2026-05-08 01:44 41.44897 -72.29028 20862 ft 426 kts 64°
2026-05-08 01:44 41.46219 -72.25510 20859 ft 426 kts 64°
2026-05-08 01:45 41.47535 -72.22005 20855 ft 426 kts 64°
2026-05-08 01:45 41.48857 -72.18456 20735 ft 426 kts 65°
2026-05-08 01:45 41.50147 -72.14932 20492 ft 423 kts 65°
2026-05-08 01:45 41.51440 -72.11385 20251 ft 421 kts 65°
2026-05-08 01:46 41.52716 -72.07893 19973 ft 420 kts 65°
2026-05-08 01:46 41.53983 -72.04409 19740 ft 418 kts 65°
2026-05-08 01:46 41.55246 -72.00942 19515 ft 416 kts 66°
2026-05-08 01:46 41.56404 -71.97405 19281 ft 415 kts 69°
2026-05-08 01:47 41.57467 -71.93884 19024 ft 414 kts 70°
2026-05-08 01:47 41.58520 -71.90317 18781 ft 412 kts 70°
2026-05-08 01:47 41.59573 -71.86758 18550 ft 411 kts 70°
2026-05-08 01:48 41.61657 -71.79697 18085 ft 408 kts 70°
2026-05-08 01:48 41.62687 -71.76201 17796 ft 407 kts 70°
2026-05-08 01:48 41.63714 -71.72716 17488 ft 402 kts 70°
2026-05-08 01:48 41.64728 -71.69272 17163 ft 400 kts 70°
2026-05-08 01:49 41.65751 -71.65781 16779 ft 398 kts 69°
2026-05-08 01:49 41.66747 -71.62390 16420 ft 396 kts 69°
2026-05-08 01:49 41.67751 -71.58970 16036 ft 394 kts 69°
2026-05-08 01:49 41.68744 -71.55578 15883 ft 385 kts 69°
2026-05-08 01:50 41.69702 -71.52306 15864 ft 379 kts 69°
2026-05-08 01:50 41.70662 -71.49023 15500 ft 380 kts 68°
2026-05-08 01:50 41.71618 -71.45744 15110 ft 379 kts 68°
2026-05-08 01:50 41.72673 -71.42524 14718 ft 377 kts 62°
2026-05-08 01:51 41.73906 -71.39449 14341 ft 375 kts 58°
2026-05-08 01:51 41.75196 -71.36459 14055 ft 369 kts 57°
2026-05-08 01:51 41.76472 -71.33535 13750 ft 365 kts 58°
2026-05-08 01:51 41.77735 -71.30617 13434 ft 361 kts 58°
2026-05-08 01:52 41.78977 -71.27720 13107 ft 354 kts 58°
2026-05-08 01:52 41.80172 -71.24916 12603 ft 347 kts 58°
2026-05-08 01:52 41.81350 -71.22150 12141 ft 337 kts 58°
2026-05-08 01:52 41.82504 -71.19430 11731 ft 327 kts 58°
2026-05-08 01:53 41.83606 -71.16840 11364 ft 324 kts 58°
2026-05-08 01:53 41.84724 -71.14209 11057 ft 321 kts 58°
2026-05-08 01:53 41.85803 -71.11670 11007 ft 313 kts 57°
2026-05-08 01:53 41.86915 -71.09094 11007 ft 317 kts 57°
2026-05-08 01:54 41.88024 -71.06538 11007 ft 319 kts 57°
2026-05-08 01:54 41.89129 -71.03989 11011 ft 318 kts 57°
2026-05-08 01:54 41.90230 -71.01442 11005 ft 318 kts 57°
2026-05-08 01:54 41.91347 -70.98855 11006 ft 318 kts 57°
2026-05-08 01:55 41.92448 -70.96304 11004 ft 319 kts 57°
2026-05-08 01:55 41.93554 -70.93730 11001 ft 318 kts 57°
2026-05-08 01:55 41.94660 -70.91163 11003 ft 318 kts 57°
2026-05-08 01:55 41.95764 -70.88591 11001 ft 317 kts 57°
2026-05-08 01:56 41.96876 -70.86003 10995 ft 316 kts 57°
2026-05-08 01:56 41.97966 -70.83459 10981 ft 317 kts 57°
2026-05-08 01:56 41.99067 -70.80890 10671 ft 318 kts 57°
2026-05-08 01:56 42.00153 -70.78353 10280 ft 310 kts 56°
2026-05-08 01:57 42.01326 -70.75968 9921 ft 300 kts 49°
2026-05-08 01:57 42.02654 -70.73819 9891 ft 302 kts 45°
2026-05-08 01:57 42.04058 -70.71720 9669 ft 303 kts 45°
2026-05-08 01:57 42.05455 -70.69573 9362 ft 301 kts 46°
2026-05-08 01:58 42.06809 -70.67465 9080 ft 297 kts 46°
2026-05-08 01:58 42.08146 -70.65381 8776 ft 295 kts 46°
2026-05-08 01:58 42.09486 -70.63295 8478 ft 293 kts 46°
2026-05-08 01:58 42.10802 -70.61249 8185 ft 291 kts 46°
2026-05-08 01:59 42.12125 -70.59206 7893 ft 288 kts 46°
2026-05-08 01:59 42.13440 -70.57175 7595 ft 286 kts 46°
2026-05-08 01:59 42.14750 -70.55155 7340 ft 283 kts 46°
2026-05-08 01:59 42.16047 -70.53169 7079 ft 280 kts 46°
2026-05-08 02:00 42.17327 -70.51222 6801 ft 278 kts 46°
2026-05-08 02:00 42.18598 -70.49296 6522 ft 276 kts 46°
2026-05-08 02:00 42.19867 -70.47372 6237 ft 273 kts 45°
2026-05-08 02:00 42.21124 -70.45454 5939 ft 272 kts 45°
2026-05-08 02:01 42.22370 -70.43530 5624 ft 271 kts 45°
2026-05-08 02:01 42.23598 -70.41612 5333 ft 269 kts 46°
2026-05-08 02:01 42.24810 -70.39722 5045 ft 268 kts 45°
2026-05-08 02:01 42.26021 -70.37826 4755 ft 266 kts 45°
2026-05-08 02:02 42.27231 -70.35923 4466 ft 264 kts 45°
2026-05-08 02:02 42.28413 -70.34061 4172 ft 263 kts 46°
2026-05-08 02:02 42.29601 -70.32185 3992 ft 261 kts 46°
2026-05-08 02:02 42.30774 -70.30328 3988 ft 262 kts 46°
2026-05-08 02:03 42.31945 -70.28477 3980 ft 257 kts 46°
2026-05-08 02:03 42.33080 -70.26678 3975 ft 244 kts 46°
2026-05-08 02:03 42.34166 -70.24953 3981 ft 241 kts 45°
2026-05-08 02:03 42.35439 -70.23555 3964 ft 233 kts 16°
2026-05-08 02:04 42.37004 -70.23470 3979 ft 227 kts 342°
2026-05-08 02:04 42.38388 -70.24416 3987 ft 226 kts 327°
2026-05-08 02:04 42.39708 -70.25584 3985 ft 226 kts 326°
2026-05-08 02:04 42.41022 -70.26765 3979 ft 222 kts 326°
2026-05-08 02:05 42.42269 -70.27889 3975 ft 209 kts 326°
2026-05-08 02:05 42.43453 -70.28954 3976 ft 204 kts 326°
2026-05-08 02:05 42.44566 -70.30145 3964 ft 204 kts 307°
2026-05-08 02:05 42.45062 -70.31916 3973 ft 209 kts 276°
2026-05-08 02:06 42.44928 -70.33894 3992 ft 213 kts 262°
2026-05-08 02:06 42.44676 -70.35867 3990 ft 211 kts 267°
2026-05-08 02:06 42.44539 -70.37826 3989 ft 211 kts 269°
2026-05-08 02:06 42.44416 -70.39812 3988 ft 210 kts 269°
2026-05-08 02:07 42.44300 -70.41782 3991 ft 210 kts 269°
2026-05-08 02:07 42.44186 -70.43748 3987 ft 210 kts 269°
2026-05-08 02:07 42.44212 -70.45722 3992 ft 209 kts 278°
2026-05-08 02:07 42.44356 -70.47665 3992 ft 209 kts 278°
2026-05-08 02:08 42.44390 -70.49641 3990 ft 210 kts 270°
2026-05-08 02:08 42.44215 -70.51585 3989 ft 211 kts 265°
2026-05-08 02:08 42.43975 -70.53554 3987 ft 212 kts 264°
2026-05-08 02:08 42.43704 -70.55510 3987 ft 212 kts 263°
2026-05-08 02:09 42.43401 -70.57481 3988 ft 212 kts 262°
2026-05-08 02:09 42.43081 -70.59423 3989 ft 212 kts 261°
2026-05-08 02:09 42.42745 -70.61362 3996 ft 212 kts 261°
2026-05-08 02:09 42.42399 -70.63300 3999 ft 212 kts 260°
2026-05-08 02:10 42.42052 -70.65207 3987 ft 211 kts 260°
2026-05-08 02:10 42.41698 -70.67142 3995 ft 211 kts 259°
2026-05-08 02:10 42.41343 -70.69077 3927 ft 213 kts 260°
2026-05-08 02:10 42.40989 -70.71014 3742 ft 211 kts 260°
2026-05-08 02:11 42.40641 -70.72918 3537 ft 210 kts 260°
2026-05-08 02:11 42.40292 -70.74840 3329 ft 208 kts 260°
2026-05-08 02:11 42.39951 -70.76721 3174 ft 203 kts 261°
2026-05-08 02:11 42.39621 -70.78546 3016 ft 199 kts 261°
2026-05-08 02:12 42.39307 -70.80284 2820 ft 185 kts 261°
2026-05-08 02:12 42.39011 -70.81933 2540 ft 178 kts 262°
2026-05-08 02:12 42.38723 -70.83549 2286 ft 175 kts 262°
2026-05-08 02:12 42.38443 -70.85133 2041 ft 174 kts 262°
2026-05-08 02:13 42.38158 -70.86736 1799 ft 173 kts 262°
2026-05-08 02:13 42.37881 -70.88279 1570 ft 168 kts 262°
2026-05-08 02:13 42.37614 -70.89771 1372 ft 157 kts 262°
2026-05-08 02:13 42.37445 -70.90717 1222 ft 151 kts 261°
2026-05-08 02:14 42.37139 -70.92437 961 ft 134 kts 261°
2026-05-08 02:14 42.36925 -70.93653 792 ft 132 kts 261°
2026-05-08 02:14 42.36711 -70.94857 628 ft 132 kts 260°
2026-05-08 02:14 42.36496 -70.96055 462 ft 132 kts 260°
2026-05-08 02:15 42.36283 -70.97265 263 ft 132 kts 259°
2026-05-08 02:15 42.36070 -70.98482 105 ft 132 kts 258°
2026-05-08 02:15 42.35861 -70.99655 14 ft 122 kts 258°
2026-05-08 02:15 42.35701 -71.00594 15 ft 78 kts 256°
2026-05-08 02:16 42.35635 -71.00994 18 ft 29 kts 266°
2026-05-08 02:16 42.35666 -71.01166 21 ft 12 kts 302°
2026-05-08 02:16 42.35718 -71.01255 21 ft 9 kts 307°
2026-05-08 02:16 42.35749 -71.01339 21 ft 10 kts 289°
2026-05-08 02:17 42.35775 -71.01439 21 ft 11 kts 289°
2026-05-08 02:17 42.35804 -71.01547 20 ft 13 kts 288°
2026-05-08 02:17 42.35830 -71.01650 18 ft 6 kts 308°
2026-05-08 02:17 42.35879 -71.01661 18 ft 8 kts 343°
2026-05-08 02:18 42.35907 -71.01732 18 ft 9 kts 280°
2026-05-08 02:18 42.35922 -71.01829 18 ft 11 kts 284°
2026-05-08 02:18 42.35952 -71.01900 18 ft 4 kts 312°
2026-05-08 02:18 42.35980 -71.01899 18 ft 5 kts 35°
2026-05-08 02:19 42.36010 -71.01874 18 ft 1 kts 30°
2026-05-08 02:19 42.36017 -71.01869 18 ft 0 kts 30°